Vorticity
5 5 4 5 7 5 9 16 3 5 9 7 11 -0 9 1 -4 3 18 16 15 3 -6 -5 2 9 16 14 9 6 7 7 6 5 5 7 2 8 3 7 5 5 7 7 3 6 8 6 5
5 5 4 1 -1 1 9 7 3 7 4 1 2 1 -3 0 0 6 1 16 1 6 0 7 12 13 12 9 9 7 7 7 6 6 4 0 5 4 8 7 6 7 5 9 5 6 9 8 6
6 5 5 7 18 -7 -0 7 9 17 4 2 4 1 2 -2 1 8 8 13 7 5 2 16 7 8 9 6 8 9 7 6 8 6 6 4 2 6 5 6 4 5 5 6 7 7 8 7 5
6 7 10 -3 -15 -7 32 18 11 12 19 4 0 5 3 2 -3 1 9 8 7 3 -1 16 6 6 4 7 4 7 11 10 9 5 4 2 -1 7 8 11 7 5 3 3 4 8 8 7 6
7 4 3 2 5 4 -15 8 5 -3 4 13 8 -1 -5 1 -4 1 7 7 7 1 19 14 9 8 7 7 7 6 7 9 9 11 4 5 10 -2 -8 9 7 2 3 0 4 7 9 8 5
7 4 -8 12 4 0 3 8 -7 -19 4 0 2 -0 -0 7 3 2 5 9 6 -1 3 -4 1 4 6 8 9 7 6 9 10 5 4 1 8 -7 -16 18 -9 -21 2 4 -2 4 11 8 8
9 6 0 3 -1 -1 9 10 12 15 13 -1 5 12 -2 2 6 1 5 7 7 5 0 -0 7 7 8 4 8 10 6 6 7 7 5 5 13 7 11 7 2 14 -1 7 26 -9 0 5 8
8 8 11 8 4 -0 3 3 0 8 19 9 15 27 8 -2 3 2 3 7 5 5 1 1 7 6 6 3 6 13 11 7 6 7 6 5 5 5 4 2 18 0 29 3 55 13 7 4 8
7 6 -1 -3 5 -1 -2 2 23 13 11 18 11 7 11 -5 -4 4 3 11 5 3 4 3 5 6 7 3 5 10 9 15 10 7 8 7 4 6 8 6 10 7 5 4 -1 51 6 11 11
5 4 4 0 2 3 4 2 5 12 -1 0 13 9 5 2 5 -3 6 4 6 5 6 4 4 5 5 4 7 9 8 21 17 8 6 6 6 6 5 5 4 6 -0 19 23 23 6 8 9
4 1 0 2 6 7 6 7 6 -1 3 -2 -0 9 9 19 -1 -4 2 -1 9 6 1 3 3 6 4 4 7 9 11 26 21 10 7 7 8 8 8 7 11 1 11 14 20 12 4 6 3
3 4 4 5 7 7 5 3 4 4 20 0 -5 6 7 9 8 9 10 2 13 11 2 4 4 8 5 3 8 8 8 22 14 10 10 12 12 9 7 8 10 5 8 13 24 7 3 4 3
6 3 4 5 8 5 6 5 8 7 15 12 0 6 -1 6 10 1 2 1 1 3 8 7 3 10 4 3 9 8 8 14 15 11 11 9 7 5 17 19 2 34 4 20 13 -4 4 4 7
1 22 14 11 8 5 6 4 0 3 8 22 1 9 -0 -0 8 1 1 -2 4 10 15 9 5 10 5 3 8 9 6 6 11 11 9 7 7 10 5 11 -0 49 20 -4 5 44 10 3 6
11 11 8 7 8 8 9 8 4 5 7 10 13 19 7 -1 0 6 9 0 -1 1 12 1 6 9 9 4 5 7 9 9 8 8 9 10 9 8 6 -4 11 45 24 -11 7 -2 12 -12 6
24 21 23 19 38 22 11 2 -4 -2 39 27 35 7 17 4 -2 4 4 1 1 3 3 4 4 7 9 5 5 5 6 11 11 7 8 10 10 9 7 3 13 26 31 1 27 2 18 -1 5
9 -6 3 12 28 23 17 15 33 29 27 23 14 -3 11 25 6 1 5 3 4 1 3 5 7 -1 8 4 4 5 7 11 8 11 11 13 11 9 7 4 8 45 19 12 25 6 11 3 7
-7 9 10 5 7 21 10 3 2 -1 -4 -5 -6 -5 1 5 18 13 1 6 2 -2 3 3 4 3 -3 9 7 8 9 9 9 13 15 15 13 8 6 3 2 19 31 -2 31 14 -3 7 3
13 10 0 1 -10 -11 -6 1 2 3 6 3 4 7 9 8 7 7 11 11 5 2 8 0 4 6 -1 4 7 7 8 8 11 10 12 13 15 14 10 6 7 -0 8 43 1 1 -1 7 -11
5 3 9 15 22 20 18 10 10 9 12 9 7 6 4 6 7 9 7 2 14 9 14 4 4 7 2 0 6 5 4 10 11 10 15 11 24 14 14 3 -1 3 -4 3 25 7 11 3 3
1 1 2 -3 3 8 12 30 64 51 30 31 24 16 10 9 7 8 9 11 6 11 23 6 4 8 4 2 5 7 3 10 12 9 12 7 14 15 22 7 9 4 5 -7 8 13 9 9 8
17 17 15 11 18 9 -3 -7 0 25 32 13 19 26 41 32 17 10 9 9 10 17 24 3 6 12 4 0 2 7 3 10 9 10 13 11 16 18 7 18 6 10 15 -3 30 4 5 5 4
12 22 18 7 5 15 34 11 17 -36 57 18 20 35 18 22 28 20 9 14 3 23 12 1 14 6 5 3 2 7 3 10 8 9 12 13 14 9 19 4 20 19 -6 14 28 7 2 14 5
13 13 8 15 12 17 28 -8 -3 25 -2 10 14 11 15 26 17 28 18 8 11 27 13 10 13 6 6 5 2 7 3 11 7 8 10 13 16 15 13 24 5 -15 28 16 2 -9 -3 23 0
5 5 7 4 6 3 8 18 -22 10 23 8 10 9 11 19 27 22 22 4 9 27 5 -0 2 4 7 4 2 6 3 11 7 7 9 13 18 17 24 17 22 25 4 1 19 -14 23 17 -3
16 3 4 10 7 4 17 11 8 3 -1 4 2 3 17 24 27 24 20 1 6 17 7 8 19 2 4 6 3 5 4 11 7 5 8 15 21 21 14 13 11 9 26 12 11 34 6 8 15
16 2 16 -1 14 5 7 12 17 5 4 8 16 8 8 12 34 19 9 3 7 14 7 6 8 15 8 5 3 6 5 10 6 4 6 14 19 14 9 10 11 14 25 12 22 29 11 13 8
5 12 4 10 10 9 18 9 4 3 5 6 25 20 19 25 28 26 11 3 10 6 5 5 -2 20 11 4 2 5 6 8 5 4 5 12 15 9 9 8 10 11 21 15 9 17 16 34 23
5 5 8 8 5 7 8 13 -4 16 19 -8 -7 16 18 19 36 22 16 6 -4 0 1 16 28 26 7 2 2 7 6 8 6 4 4 8 14 12 11 4 9 6 10 11 16 14 4 31 15
5 3 3 7 3 12 5 2 9 -13 6 -1 3 19 13 17 33 26 15 17 15 12 -13 28 29 10 8 0 -1 7 7 8 7 5 4 5 8 11 12 12 12 11 10 11 13 17 13 8 2
Height
3137 3138 3138 3140 3144 3138 3137 3138 3138 3138 3139 3139 3140 3142 3144 3144 3145 3148 3144 3142 3142 3143 3144 3145 3145 3145 3144 3144 3144 3144 3145 3147 3149 3150 3152 3154 3156 3157 3158 3159 3160 3160 3161 3162 3162 3164 3165 3167 3169
3134 3135 3136 3136 3138 3133 3134 3135 3136 3137 3138 3138 3139 3140 3141 3142 3143 3142 3141 3141 3142 3142 3142 3141 3141 3141 3141 3142 3142 3142 3143 3144 3147 3148 3150 3153 3154 3155 3156 3157 3157 3158 3160 3161 3161 3162 3165 3166 3168
3131 3132 3134 3133 3130 3126 3130 3132 3133 3134 3135 3136 3137 3138 3138 3140 3140 3141 3140 3140 3141 3141 3140 3139 3139 3139 3139 3139 3140 3140 3141 3143 3144 3145 3147 3149 3150 3151 3155 3156 3156 3156 3157 3159 3160 3162 3163 3165 3167
3127 3129 3130 3127 3123 3124 3127 3129 3130 3131 3132 3134 3135 3136 3137 3138 3139 3139 3139 3139 3140 3139 3138 3138 3137 3137 3137 3138 3138 3137 3138 3139 3141 3143 3144 3146 3146 3147 3152 3153 3154 3154 3155 3157 3158 3160 3161 3163 3165
3123 3123 3124 3120 3118 3120 3126 3128 3128 3129 3130 3131 3132 3133 3134 3136 3137 3137 3137 3138 3138 3137 3137 3136 3136 3135 3135 3135 3136 3135 3135 3136 3137 3139 3141 3143 3143 3140 3147 3148 3144 3150 3153 3155 3155 3158 3159 3161 3163
3118 3118 3117 3115 3114 3117 3121 3125 3126 3126 3128 3129 3129 3131 3132 3134 3135 3136 3135 3136 3136 3136 3135 3135 3135 3134 3133 3132 3132 3133 3133 3132 3134 3136 3138 3138 3141 3143 3144 3143 3145 3149 3149 3150 3151 3154 3156 3159 3161
3111 3112 3109 3111 3112 3114 3117 3120 3122 3123 3124 3125 3125 3127 3129 3131 3132 3133 3133 3134 3134 3134 3134 3134 3133 3131 3130 3129 3129 3129 3130 3131 3131 3132 3132 3135 3138 3139 3141 3141 3144 3144 3144 3145 3148 3145 3152 3156 3160
3106 3107 3103 3106 3108 3108 3112 3115 3117 3119 3119 3120 3121 3122 3126 3128 3129 3130 3131 3131 3131 3131 3131 3131 3130 3129 3128 3127 3126 3126 3126 3127 3128 3128 3129 3131 3133 3135 3136 3138 3139 3140 3140 3141 3139 3139 3146 3152 3157
3100 3099 3093 3098 3105 3106 3108 3111 3112 3113 3115 3115 3116 3119 3121 3123 3125 3126 3127 3128 3128 3128 3129 3128 3127 3126 3126 3124 3123 3123 3122 3121 3122 3123 3124 3126 3129 3130 3131 3133 3135 3136 3136 3136 3136 3136 3141 3150 3154
3092 3087 3086 3094 3101 3102 3103 3105 3108 3110 3111 3113 3114 3115 3115 3117 3119 3121 3124 3124 3125 3125 3125 3125 3124 3123 3122 3121 3120 3119 3117 3115 3116 3118 3120 3121 3123 3125 3127 3129 3130 3131 3133 3131 3131 3132 3140 3147 3150
3082 3078 3085 3089 3098 3098 3096 3097 3101 3102 3104 3109 3110 3110 3110 3112 3114 3116 3119 3121 3122 3122 3121 3121 3120 3119 3118 3118 3116 3115 3113 3111 3111 3113 3114 3116 3119 3120 3122 3123 3125 3126 3127 3128 3127 3131 3138 3144 3148
3077 3077 3081 3084 3092 3090 3090 3091 3089 3093 3097 3103 3103 3104 3106 3108 3110 3112 3113 3115 3117 3118 3118 3117 3116 3116 3115 3114 3112 3112 3110 3108 3108 3109 3110 3112 3114 3115 3117 3118 3119 3121 3121 3122 3125 3129 3136 3142 3147
3070 3072 3076 3080 3084 3083 3083 3081 3083 3083 3091 3097 3096 3098 3101 3102 3104 3106 3107 3109 3111 3112 3112 3112 3112 3112 3111 3110 3109 3108 3107 3106 3106 3106 3107 3108 3110 3112 3112 3112 3114 3115 3115 3117 3121 3126 3134 3139 3144
3066 3069 3070 3071 3076 3077 3075 3076 3076 3075 3087 3088 3089 3092 3095 3096 3099 3100 3102 3103 3106 3107 3108 3108 3108 3107 3107 3106 3105 3105 3104 3103 3103 3103 3103 3103 3105 3107 3107 3108 3107 3105 3108 3114 3118 3121 3128 3135 3141
3061 3062 3064 3064 3068 3071 3074 3065 3064 3075 3077 3077 3082 3085 3087 3089 3091 3095 3098 3099 3100 3102 3102 3103 3103 3103 3103 3102 3102 3101 3100 3099 3099 3099 3099 3099 3100 3101 3101 3101 3099 3097 3101 3107 3114 3116 3123 3133 3138
3056 3056 3056 3060 3062 3065 3071 3043 3062 3067 3069 3070 3073 3075 3078 3082 3085 3088 3091 3092 3093 3095 3096 3097 3098 3099 3098 3098 3098 3097 3097 3095 3094 3095 3094 3094 3095 3096 3096 3097 3095 3093 3096 3103 3107 3113 3121 3129 3134
3050 3049 3050 3054 3055 3058 3060 3046 3057 3061 3062 3064 3066 3069 3070 3074 3077 3082 3084 3086 3087 3089 3090 3091 3093 3094 3094 3093 3094 3094 3092 3092 3090 3091 3090 3088 3090 3091 3091 3092 3092 3089 3094 3100 3104 3109 3118 3123 3131
3045 3045 3045 3048 3051 3052 3051 3044 3050 3054 3055 3056 3058 3061 3062 3065 3069 3074 3076 3078 3080 3081 3083 3084 3086 3089 3089 3089 3090 3090 3088 3087 3086 3086 3084 3083 3084 3086 3088 3089 3091 3092 3091 3097 3101 3106 3114 3119 3128
3041 3041 3041 3043 3045 3045 3043 3037 3041 3043 3046 3046 3049 3051 3053 3055 3061 3063 3066 3069 3071 3073 3076 3077 3080 3083 3084 3085 3085 3085 3084 3083 3081 3080 3080 3078 3078 3081 3084 3087 3089 3091 3093 3096 3101 3106 3110 3114 3120
3036 3037 3037 3039 3041 3040 3035 3022 3030 3031 3034 3038 3040 3041 3043 3045 3049 3052 3056 3058 3062 3065 3068 3071 3073 3076 3079 3081 3081 3081 3080 3079 3077 3076 3075 3074 3074 3077 3079 3083 3086 3090 3093 3096 3100 3105 3108 3112 3119
3032 3033 3034 3037 3036 3035 3031 3012 3018 3022 3023 3025 3027 3029 3031 3033 3037 3042 3045 3048 3052 3054 3058 3063 3067 3070 3074 3076 3076 3077 3076 3075 3074 3072 3072 3070 3070 3072 3074 3079 3083 3084 3090 3094 3099 3102 3104 3109 3114
3027 3029 3031 3032 3034 3034 3031 3014 3014 3014 3014 3016 3017 3017 3019 3020 3023 3029 3034 3037 3041 3046 3049 3055 3059 3063 3067 3070 3072 3073 3073 3071 3070 3069 3068 3067 3066 3068 3072 3074 3076 3083 3087 3090 3095 3099 3102 3106 3110
3024 3026 3026 3029 3031 3030 3027 3026 3004 3008 3008 3007 3005 3005 3006 3007 3008 3013 3021 3028 3033 3035 3041 3047 3052 3056 3061 3065 3067 3068 3069 3068 3066 3065 3064 3063 3063 3063 3065 3068 3073 3079 3082 3087 3088 3091 3096 3101 3106
3021 3023 3024 3026 3027 3025 3019 3020 3002 3005 3005 3001 3001 3001 3000 2998 2996 3001 3011 3018 3022 3027 3033 3040 3046 3050 3054 3060 3063 3064 3065 3065 3063 3062 3060 3059 3059 3060 3061 3063 3069 3074 3076 3080 3084 3087 3091 3096 3099
3017 3018 3021 3025 3024 3017 3016 3018 3004 3003 3003 3002 2998 2996 2995 2993 2992 2996 3002 3010 3016 3022 3027 3034 3040 3044 3049 3054 3058 3060 3060 3061 3060 3058 3056 3055 3055 3056 3057 3059 3062 3067 3072 3075 3079 3082 3084 3087 3092
3013 3014 3015 3012 3014 3015 3016 3011 3004 3002 3003 3002 2998 2993 2990 2988 2989 2990 2997 3004 3011 3017 3022 3028 3034 3038 3042 3048 3053 3055 3056 3057 3057 3055 3053 3052 3051 3052 3054 3056 3059 3062 3065 3069 3072 3074 3076 3082 3084
3010 3011 3013 3015 3015 3016 3011 3006 3004 3002 3003 3000 2994 2991 2989 2987 2987 2989 2992 2997 3003 3011 3016 3024 3028 3031 3036 3043 3047 3050 3052 3053 3053 3052 3050 3049 3049 3050 3052 3054 3056 3057 3060 3063 3067 3069 3071 3074 3076
3008 3011 3013 3014 3013 3011 3005 3004 3002 3003 3001 2998 2993 2988 2986 2984 2984 2987 2991 2996 3000 3006 3011 3017 3021 3025 3030 3037 3042 3044 3047 3047 3049 3049 3048 3047 3047 3047 3049 3051 3053 3054 3056 3059 3062 3064 3066 3067 3070
3007 3008 3010 3011 3012 3009 3006 3003 3002 3001 3000 2997 2994 2989 2983 2979 2978 2982 2986 2991 2996 3000 3005 3010 3012 3017 3023 3031 3037 3039 3041 3043 3044 3046 3045 3045 3045 3046 3047 3049 3051 3053 3054 3057 3059 3061 3061 3062 3066
3005 3006 3007 3008 3011 3010 3010 3005 3001 3000 2998 2996 2993 2988 2984 2977 2974 2976 2980 2984 2990 2994 2998 3002 3006 3012 3019 3025 3030 3033 3036 3038 3040 3042 3043 3043 3044 3045 3046 3048 3049 3051 3052 3053 3054 3055 3058 3060 3063